Weather History for Fort Worth, TX

Change the Weather History Date:

Wednesday, April 24, 2013

  Actual Average Record
Temperature  
Mean Temperature 46 °F -  
Max Temperature 60 °F 76 °F 91 °F (2002)
Min Temperature 34 °F 54 °F 34 °F (2013)
Degree Days  
Heating Degree Days 18    
Moisture  
Dew Point 34 °F    
Average Humidity 62    
Maximum Humidity 89    
Minimum Humidity 42    
Precipitation  
Precipitation 0.00 in - - ()
Sea Level Pressure  
Sea Level Pressure 30.27 in    
Wind  
Wind Speed 11 mph (North)    
Max Wind Speed 16 mph    
Max Gust Speed 23 mph    
Visibility 10 miles    
Events      
Averages and records for this station are not official NWS values.
T = Trace of Precipitation, MM = Missing Value Source: NWS Daily Summary

Daily Weather History Graph

Daily Weather History Graph

Search for Another Location

Airport:

Trip Planner

Search our weather history database for the weather conditions in past years. The results will help you decide how hot, cold, wet, or windy it might be!

Date:

Astronomy

Apr. 24, 2013 Rise Set
Actual Time 6:49 AM CDT 8:06 PM CDT
Civil Twilight 6:23 AM CDT 8:32 PM CDT
Nautical Twilight 5:52 AM CDT 9:03 PM CDT
Astronomical Twilight 5:20 AM CDT 9:35 PM CDT
Moon 7:12 PM CDT (4/24) 5:50 AM CDT (4/24)
Length of Visible Light 14h 08m
Length of Day
13h 17m
Waxing Gibbous, 98% of the Moon is Illuminated
Apr 24
Waxing Gibbous
Apr 25
Full
May 2
Last Quarter
May 9
New
May 17
First Quarter

Hourly Weather History & Observations

Time (CDT) Temp. Windchill Dew Point Humidity Pressure Visibility Wind Dir Wind Speed Gust Speed Precip Events Conditions
12:53 AM 39.9 °F 32.5 °F 37.0 °F 89% 30.22 in 10.0 mi NNW 12.7 mph 20.7 mph 0.00 in   Overcast
1:53 AM 39.0 °F 31.8 °F 36.0 °F 89% 30.23 in 10.0 mi NNW 11.5 mph 20.7 mph 0.00 in   Overcast
2:00 AM 39.2 °F 32.0 °F 35.6 °F 87% 30.21 in 10.0 mi NNW 11.5 mph - N/A   Overcast
2:53 AM 39.0 °F 30.3 °F 35.1 °F 86% 30.24 in 10.0 mi NNW 16.1 mph - N/A   Overcast
3:53 AM 37.9 °F 28.9 °F 32.0 °F 79% 30.26 in 10.0 mi NNW 16.1 mph 23.0 mph N/A   Mostly Cloudy
4:53 AM 37.4 °F 29.8 °F 30.2 °F 75% 30.26 in 10.0 mi NNW 11.5 mph 18.4 mph N/A   Clear
5:53 AM 35.1 °F 27.4 °F 30.0 °F 82% 30.29 in 10.0 mi NNW 10.4 mph - N/A   Clear
6:53 AM 34.0 °F 26.0 °F 30.0 °F 85% 30.31 in 10.0 mi NW 10.4 mph - N/A   Clear
7:53 AM 36.0 °F 29.6 °F 30.9 °F 82% 30.31 in 10.0 mi NNW 8.1 mph - N/A   Clear
8:53 AM 39.0 °F 31.4 °F 30.9 °F 73% 30.33 in 10.0 mi North 12.7 mph - N/A   Clear
9:53 AM 43.0 °F 36.0 °F 33.1 °F 68% 30.33 in 10.0 mi NNE 13.8 mph 19.6 mph N/A   Clear
10:53 AM 46.9 °F - 35.1 °F 63% 30.33 in 10.0 mi North 10.4 mph - N/A   Clear
11:53 AM 48.9 °F - 35.1 °F 59% 30.32 in 10.0 mi North 13.8 mph 20.7 mph N/A   Clear
12:53 PM 52.0 °F - 35.1 °F 53% 30.29 in 10.0 mi North 15.0 mph 19.6 mph N/A   Clear
1:53 PM 54.0 °F - 35.1 °F 49% 30.27 in 10.0 mi NNE 8.1 mph 18.4 mph N/A   Clear
2:53 PM 57.0 °F - 35.1 °F 44% 30.26 in 10.0 mi NNE 9.2 mph 17.3 mph N/A   Clear
3:53 PM 57.9 °F - 35.1 °F 42% 30.24 in 10.0 mi NNE 6.9 mph - N/A   Clear
4:53 PM 59.0 °F - 36.0 °F 42% 30.22 in 10.0 mi North 5.8 mph - N/A   Clear
5:53 PM 57.9 °F - 35.1 °F 42% 30.21 in 10.0 mi Variable 4.6 mph - N/A   Mostly Cloudy
6:53 PM 57.9 °F - 35.1 °F 42% 30.22 in 10.0 mi ENE 8.1 mph - N/A   Mostly Cloudy
7:53 PM 57.0 °F - 34.0 °F 42% 30.23 in 10.0 mi NE 10.4 mph - N/A   Overcast
8:53 PM 54.0 °F - 34.0 °F 47% 30.26 in 10.0 mi NE 5.8 mph - N/A   Scattered Clouds
9:53 PM 55.0 °F - 35.1 °F 47% 30.28 in 10.0 mi NE 5.8 mph - N/A   Overcast
10:53 PM 55.0 °F - 35.1 °F 47% 30.30 in 10.0 mi NE 5.8 mph - N/A   Overcast
11:53 PM 55.0 °F - 35.1 °F 47% 30.30 in 10.0 mi ENE 6.9 mph - N/A   Overcast